Wind_Speed
30 23 19 12 10 13 12 11 10 7 7 6 6 9 9 10 10 11 13 16 17 17 12 8 6 4 4 4 7 7 11 12 11 11 13 13 11 11 10 9 10 9 9
29 24 22 13 9 10 14 14 10 8 9 8 6 4 8 9 8 9 7 7 10 13 16 14 11 8 4 2 3 6 8 9 10 9 9 9 8 7 6 7 7 7 6
28 24 22 14 11 13 12 7 7 8 8 7 7 5 5 7 8 8 8 7 7 8 9 9 8 10 11 7 4 3 5 7 8 10 10 8 7 7 7 5 5 6 5
27 23 21 16 14 13 12 10 10 7 7 7 7 6 5 4 4 6 8 8 7 6 7 7 7 5 7 12 11 7 7 6 5 8 7 5 3 5 6 5 4 6 6
26 22 19 17 16 14 13 9 8 7 5 5 6 6 6 7 6 5 5 7 9 8 7 6 8 7 7 9 12 9 6 7 6 6 5 4 5 5 6 5 4 5 5
26 21 15 16 14 13 11 9 7 7 7 6 6 6 6 7 8 7 8 8 8 10 11 11 11 9 11 12 11 4 7 8 7 6 7 5 3 5 4 5 5 3 3
25 22 17 13 12 12 11 10 9 8 6 5 5 6 6 6 5 8 8 10 11 10 10 12 13 13 13 13 11 6 5 7 7 7 7 7 4 2 2 2 5 3 1
25 23 19 15 14 13 12 11 10 9 7 6 2 3 5 7 8 6 8 10 11 12 13 13 13 14 15 15 14 10 8 7 9 9 10 9 7 2 2 0 3 5 3
25 23 21 18 18 15 13 11 9 7 6 4 4 4 1 2 7 8 10 10 12 12 13 13 14 14 14 15 15 14 12 9 9 10 11 12 10 7 3 5 4 3 5
25 24 22 18 15 14 12 11 7 5 4 3 3 3 4 5 5 6 8 9 10 13 14 14 14 15 15 16 15 14 13 12 11 12 12 12 13 12 8 9 8 6 4
27 25 23 21 18 15 12 9 9 8 7 6 5 5 5 6 6 6 7 9 9 10 12 14 14 16 17 17 17 16 15 14 12 15 17 14 14 15 14 11 10 8 7
30 27 24 22 19 17 15 12 10 8 6 5 5 5 6 6 6 6 6 7 8 9 9 11 13 15 16 17 17 19 18 16 14 15 18 19 17 19 19 16 12 11 10
28 27 25 23 21 18 15 13 11 9 8 7 6 5 5 6 6 6 6 6 6 7 7 7 8 10 12 13 15 17 17 17 16 16 18 20 21 21 21 21 18 16 12
30 27 26 23 20 18 15 13 12 10 9 8 8 7 6 6 7 7 7 7 6 6 7 7 7 7 8 10 12 14 16 17 17 17 18 20 21 23 24 24 21 17 18
31 28 25 23 21 18 15 13 11 10 9 8 7 6 6 7 7 7 7 7 7 7 7 7 7 8 8 8 10 10 12 14 17 18 19 21 22 23 24 26 25 24 22
32 29 26 23 21 18 16 13 10 8 6 5 4 4 3 3 4 5 6 6 7 8 8 7 8 8 8 8 8 9 11 13 15 16 16 18 22 24 25 25 28 30 29
33 30 28 25 21 18 15 13 10 7 5 4 4 4 5 5 5 4 5 5 6 6 8 9 9 10 9 9 8 8 10 12 14 14 15 16 17 19 21 26 29 28 29
34 31 28 26 23 20 16 13 11 8 6 5 5 5 6 6 6 7 8 8 9 9 9 9 9 10 10 10 7 7 9 10 10 11 12 13 14 15 17 20 23 29 30
35 31 29 26 24 21 18 15 12 10 8 7 6 6 6 5 5 7 9 10 11 12 12 13 14 14 13 11 8 8 8 7 7 7 8 9 10 12 14 16 17 18 25
34 30 28 27 25 22 19 16 13 10 8 6 6 6 6 6 7 8 9 10 10 12 13 14 14 15 16 15 12 9 5 4 5 5 6 6 7 9 11 15 17 17 17
35 32 31 29 27 23 20 17 14 11 8 7 6 6 7 7 9 9 9 10 11 12 13 14 14 14 15 17 14 9 3 3 5 5 3 4 6 8 10 13 16 18 19
36 34 33 29 26 23 19 16 13 10 7 6 7 7 8 9 10 9 9 10 10 10 11 12 12 13 14 17 16 12 5 4 6 7 10 5 7 11 14 15 16 17 20
40 38 33 30 27 23 19 16 14 11 9 7 7 8 9 10 10 10 10 10 10 11 11 12 13 13 14 14 14 8 4 3 16 3 6 10 11 11 13 14 16 17 19
41 36 32 29 27 23 20 16 13 10 7 7 8 8 10 10 10 11 11 11 11 11 11 12 13 13 13 13 11 9 8 9 5 10 10 21 17 19 16 14 15 16 18
41 36 32 29 26 23 20 16 12 9 8 8 8 9 10 11 11 11 11 12 12 13 13 14 13 13 13 13 12 12 12 11 11 9 17 23 26 23 23 22 20 18 16
39 36 32 30 27 24 20 16 12 9 9 9 10 10 11 11 11 12 12 13 14 14 14 14 14 14 15 14 14 14 14 14 16 15 22 28 29 27 28 25 24 23 22
Wind_Direction
179 185 188 156 177 202 206 201 194 203 223 212 181 152 135 132 127 125 124 120 110 106 106 119 120 135 133 111 96 80 79 84 87 98 110 112 103 96 86 69 78 91 99
175 179 185 157 148 196 211 213 225 205 214 225 223 218 164 163 157 150 136 127 133 135 134 134 130 135 142 146 125 100 93 83 92 100 107 113 103 88 83 87 73 67 100
172 178 190 163 176 215 236 240 248 188 184 206 222 222 204 198 190 190 190 184 185 171 155 162 174 152 143 138 138 117 121 103 105 117 112 101 101 88 69 77 82 69 71
174 178 187 183 195 212 222 222 223 196 171 186 199 183 181 190 197 202 211 216 209 207 205 187 180 150 175 160 165 167 169 132 127 133 133 114 114 100 74 58 75 83 79
175 178 181 193 198 199 202 174 194 175 169 167 194 207 191 186 200 189 213 226 226 214 222 220 223 194 189 179 192 197 149 153 148 157 158 123 110 112 67 53 61 73 76
174 175 166 171 171 166 163 166 146 144 156 157 189 221 223 193 191 205 205 207 216 230 224 221 217 217 229 227 223 193 166 175 162 169 175 166 135 132 82 37 27 34 70
175 176 165 143 141 142 144 148 161 189 198 183 180 229 253 271 221 203 208 214 216 222 233 237 235 225 229 238 239 229 202 176 175 185 191 187 164 165 197 359 348 337 8
185 181 173 153 142 138 138 150 178 186 202 235 232 221 235 260 274 269 241 230 228 228 226 232 235 243 237 241 249 243 234 203 187 194 196 196 189 193 218 74 336 332 277
185 188 187 184 174 159 165 176 187 185 197 207 235 280 287 243 263 266 265 256 251 246 239 234 235 238 241 243 246 252 258 239 213 207 203 201 189 202 170 190 210 289 313
188 190 192 193 189 187 188 189 187 186 194 208 228 247 280 291 283 263 266 266 263 256 250 244 241 241 240 242 243 241 244 247 234 227 220 214 202 207 194 197 191 205 256
193 195 195 196 196 197 198 195 189 191 197 207 224 241 254 262 272 274 274 276 270 262 260 258 250 245 241 243 245 245 242 242 235 234 233 225 220 220 218 209 216 206 206
195 195 196 198 199 200 201 200 201 210 219 232 236 236 242 250 256 266 276 275 272 270 266 259 258 252 244 242 242 244 246 244 238 233 238 235 228 224 225 231 234 229 223
196 198 196 197 197 199 201 203 203 205 214 226 239 249 258 266 270 269 273 276 276 278 272 264 250 245 241 241 242 242 245 245 244 240 239 237 235 238 235 234 234 242 249
197 196 197 196 198 198 200 203 205 208 214 218 223 230 238 248 260 272 277 277 273 269 276 280 277 270 255 247 243 243 244 247 247 245 246 247 240 236 241 243 244 242 235
200 197 198 198 198 198 199 202 205 205 204 209 215 221 231 245 256 268 277 285 290 291 284 279 281 283 276 267 266 261 255 252 251 248 244 246 247 242 238 239 240 243 242
201 199 198 196 196 197 198 202 206 210 215 222 235 249 264 265 268 270 276 285 295 303 303 301 295 289 282 279 282 278 268 262 262 257 252 249 251 247 242 243 242 241 240
202 200 198 197 195 196 197 199 204 215 228 249 272 297 308 321 324 319 312 310 310 310 313 314 314 307 301 299 295 281 275 271 268 268 265 258 255 257 251 246 242 242 241
203 199 199 198 195 196 196 199 201 209 220 243 268 285 296 316 330 340 343 344 344 340 334 327 318 310 313 313 314 303 293 278 271 268 267 263 259 257 257 255 249 246 241
203 201 200 197 197 196 197 200 204 212 224 241 264 283 300 307 316 329 336 342 345 345 342 344 342 335 332 326 326 319 302 288 270 255 253 260 262 258 259 261 260 253 248
204 203 204 200 197 197 199 201 204 210 221 236 255 277 292 299 308 319 327 331 333 333 335 337 341 341 341 340 342 337 314 267 263 256 263 260 261 267 271 272 269 266 260
203 204 205 202 198 200 200 201 202 208 219 236 258 273 285 293 304 315 320 324 328 330 332 333 335 337 337 339 341 347 293 276 232 214 297 289 290 291 285 283 285 279 274
204 205 205 203 203 200 201 203 209 216 230 253 268 276 277 284 296 306 312 315 318 323 328 329 331 337 344 350 359 357 360 320 199 258 287 269 304 308 297 295 294 291 289
204 204 203 202 202 202 202 206 210 216 225 240 260 272 280 290 296 300 302 305 310 315 318 323 325 327 334 344 354 15 354 327 320 263 195 293 301 303 305 303 305 302 295
204 204 203 202 201 201 203 205 211 218 231 252 264 271 277 282 286 290 294 298 302 304 307 310 312 315 320 327 334 331 326 314 318 308 295 311 318 323 314 311 306 305 304
204 201 200 201 202 204 205 206 212 219 232 251 265 270 272 276 279 282 287 292 296 299 299 299 300 303 306 309 312 312 310 309 306 285 303 311 315 321 322 323 320 311 304
202 199 199 201 202 204 205 208 213 227 243 259 270 272 271 272 275 279 283 286 288 290 291 293 294 296 297 295 297 297 297 299 297 299 300 310 314 316 319 321 324 324 320
Height
1515 1520 1523 1524 1527 1528 1528 1528 1529 1529 1529 1529 1529 1531 1531 1529 1530 1531 1530 1530 1530 1530 1532 1533 1534 1535 1534 1535 1535 1536 1535 1536 1536 1535 1535 1536 1537 1538 1538 1539 1538 1539 1539
1513 1517 1520 1523 1524 1524 1524 1526 1527 1528 1529 1529 1528 1528 1529 1530 1530 1532 1533 1532 1531 1531 1530 1531 1532 1533 1535 1536 1536 1537 1536 1537 1537 1538 1537 1537 1537 1539 1539 1539 1540 1540 1540
1512 1516 1519 1521 1523 1522 1524 1525 1526 1527 1529 1529 1528 1527 1529 1529 1530 1532 1532 1532 1533 1532 1532 1532 1533 1533 1534 1535 1536 1537 1536 1537 1538 1538 1539 1539 1539 1539 1540 1540 1540 1541 1541
1511 1515 1517 1519 1521 1522 1523 1524 1526 1526 1527 1528 1529 1529 1529 1529 1529 1529 1531 1532 1533 1532 1533 1532 1533 1534 1534 1533 1533 1534 1536 1537 1539 1539 1539 1539 1540 1540 1540 1541 1541 1541 1542
1510 1514 1516 1518 1520 1521 1522 1523 1523 1524 1525 1526 1528 1528 1527 1528 1529 1527 1529 1531 1531 1531 1532 1531 1532 1534 1533 1533 1534 1534 1536 1537 1538 1539 1539 1539 1540 1541 1542 1542 1543 1543 1543
1509 1512 1515 1516 1518 1519 1521 1521 1522 1523 1523 1525 1525 1525 1527 1527 1527 1528 1529 1529 1530 1531 1530 1530 1531 1532 1533 1532 1532 1535 1535 1536 1538 1539 1539 1539 1541 1541 1542 1543 1544 1544 1545
1508 1510 1513 1516 1517 1518 1520 1521 1522 1521 1522 1524 1524 1524 1524 1524 1526 1527 1527 1528 1529 1529 1530 1530 1530 1530 1531 1531 1531 1534 1535 1536 1537 1538 1539 1540 1541 1542 1543 1543 1544 1545 1546
1506 1509 1511 1514 1516 1518 1518 1519 1519 1521 1522 1522 1522 1522 1523 1523 1522 1523 1525 1527 1527 1528 1528 1529 1530 1531 1530 1530 1531 1533 1534 1535 1536 1537 1538 1539 1541 1541 1542 1543 1544 1545 1546
1504 1507 1509 1512 1513 1515 1516 1517 1518 1520 1521 1521 1521 1520 1521 1521 1521 1522 1521 1523 1523 1525 1526 1527 1528 1528 1529 1529 1530 1531 1532 1534 1534 1535 1536 1537 1539 1540 1540 1542 1543 1544 1545
1502 1505 1507 1510 1513 1514 1516 1517 1519 1520 1520 1521 1520 1520 1519 1519 1519 1520 1520 1521 1520 1522 1523 1525 1524 1526 1526 1526 1528 1529 1529 1530 1532 1533 1533 1535 1537 1538 1538 1540 1540 1542 1544
1500 1502 1505 1507 1510 1513 1515 1516 1518 1519 1520 1520 1519 1519 1519 1519 1518 1518 1517 1518 1519 1520 1520 1520 1521 1523 1523 1524 1524 1526 1527 1527 1528 1529 1531 1533 1535 1536 1537 1538 1539 1539 1541
1495 1500 1504 1506 1509 1511 1513 1514 1515 1516 1517 1518 1518 1519 1519 1518 1518 1517 1517 1516 1517 1517 1517 1518 1518 1520 1520 1520 1521 1522 1523 1525 1527 1527 1528 1530 1532 1533 1535 1536 1537 1538 1539
1494 1498 1500 1504 1507 1509 1511 1512 1513 1515 1516 1516 1517 1517 1517 1517 1517 1516 1516 1516 1515 1514 1515 1516 1517 1517 1516 1516 1517 1519 1521 1522 1523 1524 1524 1526 1529 1530 1532 1533 1535 1536 1538
1492 1495 1498 1502 1505 1508 1510 1511 1513 1514 1516 1517 1517 1516 1516 1515 1515 1514 1514 1514 1514 1514 1513 1513 1514 1513 1512 1513 1514 1516 1517 1517 1517 1519 1520 1521 1523 1526 1529 1530 1531 1534 1535
1488 1493 1497 1499 1502 1504 1507 1509 1510 1511 1513 1514 1514 1515 1514 1514 1514 1514 1513 1512 1511 1511 1511 1511 1510 1510 1509 1510 1511 1513 1513 1512 1511 1515 1516 1517 1519 1521 1522 1526 1527 1530 1532
1484 1489 1494 1497 1500 1502 1504 1507 1509 1510 1511 1511 1511 1511 1511 1512 1512 1512 1512 1511 1510 1509 1509 1508 1508 1508 1508 1507 1508 1509 1510 1508 1511 1510 1512 1512 1513 1515 1517 1521 1522 1525 1527
1482 1487 1491 1495 1499 1502 1504 1505 1507 1508 1509 1509 1509 1509 1509 1509 1509 1509 1509 1509 1508 1508 1507 1506 1506 1505 1505 1504 1505 1507 1505 1505 1507 1505 1506 1509 1509 1509 1510 1514 1514 1519 1521
1480 1484 1489 1493 1496 1499 1502 1504 1506 1507 1508 1509 1508 1509 1508 1507 1507 1507 1507 1506 1505 1505 1505 1505 1504 1502 1502 1501 1503 1502 1501 1503 1504 1502 1501 1506 1506 1505 1505 1506 1510 1512 1512
1475 1481 1486 1490 1494 1497 1500 1503 1505 1507 1507 1508 1507 1507 1508 1506 1506 1506 1506 1505 1503 1502 1501 1501 1499 1497 1498 1500 1501 1501 1500 1499 1500 1500 1500 1502 1501 1501 1502 1502 1504 1506 1508
1475 1480 1484 1489 1491 1495 1498 1501 1503 1504 1505 1505 1505 1505 1506 1505 1504 1504 1504 1504 1503 1500 1499 1498 1498 1496 1496 1496 1497 1498 1498 1498 1499 1499 1498 1499 1498 1498 1499 1498 1500 1501 1501
1471 1476 1481 1484 1488 1492 1495 1498 1500 1502 1503 1504 1504 1504 1504 1504 1504 1503 1502 1503 1501 1499 1498 1497 1497 1497 1496 1494 1494 1496 1496 1495 1495 1496 1497 1496 1495 1496 1496 1495 1495 1496 1497
1468 1471 1476 1481 1486 1489 1492 1495 1498 1500 1502 1503 1503 1502 1502 1502 1502 1500 1501 1500 1500 1499 1498 1498 1497 1496 1495 1493 1492 1491 1491 1493 1494 1494 1494 1495 1495 1493 1493 1492 1492 1492 1491
1460 1466 1472 1478 1482 1486 1490 1493 1496 1498 1499 1500 1501 1501 1500 1500 1500 1499 1499 1499 1499 1498 1497 1497 1496 1496 1494 1492 1491 1493 1493 1494 1493 1491 1492 1494 1494 1492 1491 1489 1487 1487 1488
1456 1465 1472 1475 1479 1483 1487 1491 1494 1496 1498 1499 1500 1499 1499 1498 1498 1498 1498 1497 1497 1496 1496 1496 1496 1495 1494 1492 1491 1492 1493 1493 1493 1488 1487 1489 1488 1486 1486 1485 1485 1486 1485
1453 1461 1468 1474 1477 1481 1485 1488 1491 1493 1495 1497 1497 1497 1497 1496 1495 1495 1495 1495 1494 1494 1494 1494 1493 1493 1493 1492 1492 1491 1490 1490 1489 1488 1484 1483 1482 1483 1482 1480 1481 1481 1481
1450 1457 1465 1469 1473 1478 1482 1485 1488 1491 1493 1494 1494 1495 1494 1494 1493 1493 1492 1492 1492 1492 1491 1491 1490 1489 1489 1489 1489 1488 1488 1487 1486 1485 1482 1479 1477 1477 1475 1475 1475 1474 1476